Regional Weather Roundup
Issued by NWS Sioux Falls, SD

Home | Current Version | Previous Version | Graphics & Text | Print | Product List | Glossary Off
Versions: 1 2 3 4 5 6 7 8 9 10 11 12 13 14 15 16 17 18 19 20 21 22 23 24 25 26 27 28 29 30 31 32 33 34 35 36 37 38 39 40 41 42 43 44 45 46 47 48 49 50

000
ASUS43 KFSD 210102
RWRFSD

WEATHER ROUNDUP FOR SE SOUTH DAKOTA/SW MINNESOTA/NW IOWA
NATIONAL WEATHER SERVICE SIOUX FALLS SD
800 PM CDT SUN MAY 20 2018

NOTE: "FAIR" INDICATES FEW OR NO CLOUDS BELOW 12,000 FEET WITH NO
SIGNIFICANT WEATHER AND OR OBSTRUCTIONS TO VISIBILITY.


SDZ038>040-050-052>070-210200-
SOUTHEAST SOUTH DAKOTA

CITY           SKY/WX    TMP DP  RH WIND       PRES   REMARKS
BROOKINGS      CLOUDY    62  48  60 SE9       30.11S
CHAMBERLAIN    CLOUDY    59  38  44 SE8       30.11F
HURON          CLOUDY    63  36  36 S5        30.09F
MADISON        CLOUDY    57  52  82 S7        30.11S
MITCHELL       CLOUDY    62  46  55 SE10      30.11S
SIOUX FALLS    LGT RAIN  57  50  77 CALM      30.10S
WINNER         CLOUDY    60  38  43 E9        30.11F
YANKTON        CLOUDY    55  50  83 E3        30.11S
$$

MNZ071-072-080-081-089-090-097-098-210200-
SOUTHWEST MINNESOTA

CITY           SKY/WX    TMP DP  RH WIND       PRES   REMARKS
FAIRMONT       MOCLDY    59  52  77 E10       30.12S
JACKSON        MOCLDY    59  52  77 E8        30.11F
LUVERNE        CLOUDY    61  46  59 E3        30.10F
MARSHALL       CLOUDY    66  50  56 SE7       30.11S
MONTEVIDEO     PTCLDY    70  27  19 SE10      30.11S
PIPESTONE      CLOUDY    61  50  67 SE6       30.10F
REDWOOD FALLS  CLOUDY    67  49  52 SE10      30.10S
TRACY          CLOUDY    65  52  62 SE7       30.10F
WINDOM         CLOUDY    63  43  48 E8        30.10F
WORTHINGTON    CLOUDY    61  52  72 E9        30.11S
$$

IAZ001>003-012>014-020>022-031-032-NEZ013-014-SDZ071-210200-
NORTHWEST IOWA

CITY           SKY/WX    TMP DP  RH WIND       PRES   REMARKS
CHEROKEE       LGT RAIN  56  56  97 CALM      30.11R
DENISON        LGT RAIN  57  57 100 NE7       30.09S
ESTHERVILLE    CLOUDY    58  52  80 E14       30.10S
ORANGE CITY    LGT RAIN  59  55  88 SE5       30.10R
SHELDON        CLOUDY    59  55  88 E8        30.08F
SIOUX CITY     CLOUDY    54  53  97 N5        30.09F FOG
SPENCER        LGT RAIN  59  52  77 E10       30.10F
STORM LAKE     MOCLDY    57  55  94 E10       30.09S FOG
$$

ABBREVIATIONS USED IN REMARKS
   TC - TEMPERATURE IN CELSIUS
  WCI - WIND CHILL INDEX
   HX - HEAT INDEX
  VSB - VISIBILITY





USA.gov is the U.S. government's official web portal to all federal, state and local government web resources and services.